STARLINK-32348, 61631

Orbit data source: Space-Track

STARLINK-32348, 61631 is a payload satellite owned by SpaceX/Seattle (US) in LEO that was launched on Wed, 23 Oct 2024 UTC via an FALCON 9 launch vehicle from the Air Force Eastern Test Range (AFETR). Payload-class satellites include a variety of spacecraft equipped with specific instruments for various scientific and technological missions. These include communications satellites like Starlink; space stations such as the ISS; scientific satellites like the Hubble; Earth observation satellites from companies like Planet Labs, Umbra, and HawkEye 360; GPS; miniature CubeSats for education and research; and military/defense satellites.

Loading next visibility...
Identifier
61631, 2024-191L
Orbit
LEO
Last TLE update
11 hours ago
Origin
Manufacturer
SpaceX/Seattle
Mission
Operational Commercial Communications
Bus & Motor
STARLINK V2M, Unknown motor
Mass
730 kg wet, ~700 kg dry
Launch date (UTC)
2024-10-23 (8 months ago)
Launch vehicle
FALCON 9
Launch site
Air Force Eastern Test Range (AFETR)
Object type
Payload
Rocket body
Debris
Shape & HBR
Box + 2 Pan, 29 m
Radar Cross Section
36.964 m², Large (>1 m²)

Expand to show TLE details & history

TLE from 11 hours ago
0 STARLINK-32348
1 61631U 24191L   25182.59443758  .00000061  00000-0  11764-4 0  9997
2 61631  43.0030 136.1075 0001537 266.6993  93.3683 15.27576571 39795
Epoch: 2025-07-01T14:15Z
TLE epoch observation values (Epoch: 2025-07-01T14:15:59.406Z)
Latitude
-0.00003°
Longitude
2.2223°
Altitude
482.897 km
Speed
7.626 km/s
True Right ascension
09h 04m 25s
True Declination
0° 00' 00"
Sunlit
Object was in daylight at epoch
Visualization orbit readout
Latitude
33.64516°
Longitude
44.79005°
Altitude
485.119 km
Speed
7.627 km/s
Apparent Right ascension
08h 12m 13s
Apparent Declination
-8° 32' 51"
Sunlit
Object is in daylight
Visualization observer readout
Local Sidereal Time
13:10:07
Azimuth
253.412° W
Elevation
6.179°
Doppler factor
1
Orbital elements
Apogee altitude
486.059 km
Perigee altitude
483.949 km
Semi-major axis
6,863.141 km
Eccentricity
0.00015
Inclination
43.003°
RAAN
136.1075°
Arg. of periapsis
266.6993°
True anomaly
Unknown
Mean anomaly
93.3683°
Eccentric anomaly
Unknown
Mean motion
3.81732 °/min
Orbital period
94.31 mins
BSTAR
0.000011764
Loading maneuver chart data...
Loading SW <> Apogee altitude chart data...
Loading historical data...
Loading historical data...
Loading historical data...
Loading historical data...
Loading historical data...
Loading historical data...
Loading historical data...

STARLINK-32348 Visibility forecast

Observer location: undefined°, undefined°

Span
Click to sort rows by Start time (UTC) header in descending order
Start Az.
Max El. time (UTC)
Max El. Az.
Max El.
End time (UTC)
End Az.
7 mins2025-07-02 01:30:12.175Z253.666° W2025-07-02 01:33:12.175Z264.632° W42.261°2025-07-02 01:37:12.175Z71.39° E
6 mins2025-07-02 03:10:12.175Z287.832° WNW2025-07-02 03:13:12.175Z22.291° NNE37.11°2025-07-02 03:16:12.175Z76.594° E
5 mins2025-07-02 04:50:12.175Z289.424° WNW2025-07-02 04:52:12.175Z93.901° ESE44.503°2025-07-02 04:55:12.175Z107.72° ESE
4 mins2025-07-02 06:29:12.175Z247.964° W2025-07-02 06:30:12.175Z226.014° WSW21.473°2025-07-02 06:33:12.175Z164.391° S
4 mins2025-07-02 23:26:12.175Z173.389° S2025-07-02 23:27:12.175Z148.485° SSE22.485°2025-07-02 23:30:12.175Z92.241° ESE
5 mins2025-07-03 01:04:12.175Z254.556° W2025-07-03 01:06:12.175Z53.932° ENE44.245°2025-07-03 01:09:12.175Z71.363° E
|